Regional Weather Roundup
Issued by NWS Newport/Morehead, NC

Current Version | Previous Version | Text Only | Print | Product List | Glossary On
Versions: 1 2 3 4 5 6 7 8 9 10 11 12 13 14 15 16 17 18 19 20 21 22 23 24 25 26 27 28 29 30 31 32 33 34 35 36 37 38 39 40 41
000
ASUS42 KMHX 221413
RWRMHX
WEATHER ROUNDUP FOR EASTERN NORTH CAROLINA
NATIONAL WEATHER SERVICE NEWPORT/MOREHEAD CITY NC
1000 AM EDT SUN APR 22 2018

NOTE: "FAIR" INDICATES FEW OR NO CLOUDS BELOW 12,000 FEET
WITH NO SIGNIFICANT WEATHER AND/OR OBSTRUCTIONS TO VISIBILITY

NCZ015>017-031-032-045>047-102-103-221500-
NORTH COAST

CITY           SKY/WX    TMP DP  RH WIND       PRES   REMARKS
EDENTON        FAIR      62  38  42 E12       30.42S
ELIZABETH CITY FAIR      61  38  42 SE7       30.43R
KITTY HAWK     FAIR      55  38  53 CALM      30.42R
MANTEO         FAIR      58  31  36 E6        30.43S

$$

NCZ045>047-081-094-103-104-221500-
CENTRAL COAST

CITY           SKY/WX    TMP DP  RH WIND       PRES   REMARKS
FRISCO         FAIR      61  37  41 VRB7      30.41R

$$

NCZ095-097-098-100-101-221500-
SOUTHERN COAST

CITY           SKY/WX    TMP DP  RH WIND       PRES   REMARKS
BEAUFORT       FAIR      64  46  52 E9        30.40R
CEDAR ISLAND   NOT AVBL
JACKSONVILLE   FAIR      64  47  53 E8        30.39R
PINEY ISLAND   NOT AVBL
WILMINGTON     FAIR      66  49  54 E10       30.37R


$$

NCZ011>013-027>030-043-044-078>080-089-090>093-098-221500-
COASTAL PLAIN

CITY           SKY/WX    TMP DP  RH WIND       PRES   REMARKS
AHOSKIE        FAIR      57  42  56 SE6       30.41S
CLINTON        FAIR      64  47  54 E3        30.39S
ELIZABETHTOWN  FAIR      63  47  57 MISG      30.38S
GOLDSBORO      FAIR      61  47  60 E7        30.38R
GREENVILLE     FAIR      61  45  55 SE3       30.41R
HAVELOCK       NOT AVBL
KENANSVILLE    FAIR      63  45  51 SE7       30.40R
KINSTON        FAIR      63  46  55 SE8       30.41R
NEW BERN       FAIR      61  48  62 VRB6      30.41R
RICHLANDS      FAIR      64  46  52 E8        30.40R
ROCKY MOUNT    FAIR      59  46  62 S6        30.40R
WASHINGTON     FAIR      61  44  54 E6        30.42R
WHITEVILLE     FAIR      65  47  51 E7        30.36S

$$

AMZ130-135-150-152-154-156-158-170-250-252-270-ANZ085-086-088-633-658-670-221500-
MARINE OBSERVATIONS

STATION/POSITION TIME  TEMP    WIND        PRES    WAVE   SWELL
                       AIR SEA DIR/SP/G            HT/PER HT/PER
                 (UTC) (F)     (DEG/KT/KT) (MB)    (FT/S) (FT/S)
CHESAPEAKE LIGHT NOT AVBL
64 E VA BEACH    1350   49 49   10/  6/  8 1030.7    2/ 9   2/ 9
DUCK             1342   54 52   80/  5/  6 1030.0
2 E DUCK         1400      52                N/A     2/13   2/13
OREGON INLET     1342   54 55   10/  4/  6 1030.3
13E OREGON INLT  1348      51                N/A     2/ 7   2/ 7
HATTERAS CG      1342   56 61   20/ 10/ 11 1029.5
DIAMOND BUOY     1400   59      10/ 12/ 16 1029.9
CAPE LOOKOUT     1400           70/ 13/ 15 1029.5
BEAUFORT LAB     1342   61 62  120/ 10/ 13 1029.3
30 SE NEW RVR IN 1308   64 65   90/ 10/ 14 1028.4
30 SE NEW RVR IN 1400      65                N/A     3/ 3
27 SE WRIGHTSVLE 1308   65 65  100/ 12/ 16 1028.1
5 SE WRIGHTSVLE  1308   62 60   90/  8/ 12 1027.8
225 S CAPE HAT   1400   65      70/ 12/ 16 1026.8
41 SE CHARLESTON 1400   68      90/ 16/ 17 1026.5

$$




USA.gov is the U.S. government's official web portal to all federal, state and local government web resources and services.